Flag for South Africa Weather past 2 weeks in Durban, South Africa

Now
77 °F

Sunny.


Feels Like: 79 °F
Forecast: 58 / 82 °F
Wind: 10 mph from South

Location: King Shaka International Airport

Current Time: May 24, 2015 at 2:18:11 PM

Latest Report: May 24, 2015 at 2:00 PM


Visibility: 10 mi

Pressure: 30.01 "Hg

Humidity: 57%

Dew point: 61 °F

Location of DurbanLocation

Historic Weather in Durban — Graph

°F

Durban temperature yesterday

Maximum temperature yesterday: 81 °F (at 11:00 AM)
Minimum temperature yesterday: 57 °F (at 11:00 PM)
Average temperature yesterday: 68 °F

Past Weeks' High & Low Weather Summary

 TemperatureHumidityPressure
High88 °F (May 19, 11:00 AM)94% (May 13, 4:00 AM)30.45 "Hg (May 13, 4:00 AM)
Low54 °F (May 13, 6:00 AM)28% (May 19, 10:00 AM)29.86 "Hg (May 14, 2:00 AM)
Average68 °F74%30.10 "Hg
* Reported May 9 1:00 PM — May 24 1:00 PM, Durban, Weather by CustomWeather, © 2015

Note: Actual official high and low records may vary slightly from our data, if they occured in-between our weather recording intervals... More about our weather records

Advertising

Durban weather history for previous 24 hours

 ConditionsComfort  
Time TempWeatherWind HumidityBarometerVisibility
1:00 PM
Sun, May 24
77 °FSunny.12 mph54%30.04 "Hg10 mi
12:00 PM79 °FSunny.12 mph39%30.07 "Hg10 mi
11:00 AM81 °FSunny.8 mph32%30.07 "Hg10 mi
10:00 AM77 °FSunny.7 mph34%30.09 "Hg10 mi
9:00 AM70 °FSunny.3 mph57%30.09 "Hg10 mi
8:00 AM63 °FSunny.2 mph73%30.09 "Hg10 mi
7:00 AM55 °FClear.2 mph82%30.07 "Hg6 mi
6:00 AM59 °FSunny.1 mph82%30.07 "Hg10 mi
5:00 AM61 °FClear.5 mph83%30.04 "Hg10 mi
4:00 AM63 °FClear.3 mph68%30.04 "Hg10 mi
3:00 AM57 °FClear.2 mph82%30.04 "Hg10 mi
2:00 AM57 °FClear.1 mph88%30.04 "Hg10 mi
1:00 AM57 °FPassing clouds.3 mph82%30.04 "HgN/A
12:00 AM57 °FClear.1 mph94%30.04 "Hg4 mi
11:00 PM
Sat, May 23
57 °FClear.No wind94%30.04 "Hg4 mi
10:00 PM61 °FClear.1 mph88%30.04 "Hg4 mi
9:00 PM64 °FClear.1 mph88%30.04 "Hg5 mi
8:00 PM68 °FClear.5 mph88%30.04 "Hg10 mi
7:00 PM70 °FPassing clouds.6 mph88%30.04 "HgN/A
6:00 PM72 °FClear.9 mph78%30.04 "Hg10 mi
5:00 PM73 °FClear.15 mph78%30.01 "Hg10 mi
4:00 PM75 °FSunny.17 mph69%30.01 "Hg10 mi
3:00 PM77 °FSunny.20 mph65%30.01 "Hg10 mi
2:00 PM77 °FSunny.17 mph65%30.04 "Hg10 mi
Weather by CustomWeather, © 2015

See weather overviewHow to use our weather pages